Location: Alsip
(41.6689°N, 87.7387°W)
Time: 14:31:27
(UTC+00:00)

JB-3 - Pass Details

Date: 14 July 2020
Orbit: 526 x 590 km, 97.3° (Epoch: 13 August)

Event Time Altitude Azimuth Distance (km) Brightness Sun altitude
Rises 03:51:38 0° 14° (NNE) 2,671 8.5 -20.4°
Reaches altitude 10° 03:53:45 10° 18° (NNE) 1,776 7.5 -20.6°
Maximum altitude 03:57:34 66° 101° (E) 579 4.2 -21.0°
Enters shadow 03:57:36 66° 105° (ESE) 579 4.1 -21.0°
